Location: Unspecified
(0.0000°N, 0.0000°E)
Time: 09:35:36
(UTC+00:00)

Vanguard 3 - All Passes

Search period start: 03 March 2024 00:00
Search period end: 13 March 2024 00:00
Orbit: 508 x 3239 km, 33.4° (Epoch: 01 March)

Date Brightness Start Highest point End Pass type
(mag) Time Alt. Az. Time Alt. Az. Time Alt. Az.
03 Mar - 01:01:13 10° NW 01:15:34 37° NNE 01:24:33 10° E night (unlit)
03 Mar - 03:17:44 10° WNW 03:30:01 77° SW 03:36:40 10° SE visible
03 Mar - 05:39:11 10° WSW 05:41:14 11° SW 05:43:04 10° SSW visible
03 Mar - 12:22:46 10° SSE 12:25:36 13° SE 12:29:01 10° ESE daylight
03 Mar - 14:29:36 10° SW 14:37:14 72° SE 14:51:13 10° ENE daylight
03 Mar - 16:41:43 10° W 16:52:01 43° NNW 17:08:17 10° NE daylight
03 Mar - 18:59:45 10° WNW 19:11:10 22° NNW 19:24:40 10° NNE visible
03 Mar - 21:22:33 10° NNW 21:34:01 18° N 21:44:43 10° NE visible
03 Mar - 23:40:49 10° NNW 23:55:12 28° NNE 00:05:33 10° ENE visible
04 Mar - 01:57:02 10° NW 02:11:53 64° NNE 02:20:08 10° ESE visible
04 Mar - 04:15:21 10° WNW 04:24:22 33° SW 04:29:57 10° SSE visible
04 Mar - 13:14:01 10° SSW 13:19:52 35° SE 13:29:29 10° ENE daylight
04 Mar - 15:23:59 10° WSW 15:32:33 63° NNW 15:47:48 10° NE daylight
04 Mar - 17:38:49 10° WNW 17:49:27 28° NNW 18:04:02 10° NNE daylight
04 Mar - 19:59:58 10° NW 20:10:49 18° N 20:22:17 10° NNE visible
04 Mar - 22:20:10 10° NNW 22:33:36 22° NNE 22:44:48 10° ENE visible
05 Mar - 00:36:34 10° NW 00:52:32 43° NNE 01:02:32 10° E night (unlit)
05 Mar - 02:53:39 10° WNW 03:07:06 70° SW 03:14:27 10° SE visible
05 Mar - 05:16:21 10° WSW 05:18:37 11° SW 05:20:37 10° SSW visible
05 Mar - 12:00:22 10° SSE 12:02:57 13° SE 12:06:04 10° ESE daylight
05 Mar - 14:07:22 10° SW 14:14:17 80° SE 14:27:03 10° ENE daylight
05 Mar - 16:19:39 10° W 16:28:56 37° NNW 16:43:38 10° NE daylight
05 Mar - 18:37:46 10° NW 18:48:03 20° N 19:00:25 10° NNE visible
05 Mar - 20:59:04 10° NNW 21:10:55 18° N 21:22:16 10° NE visible
05 Mar - 23:16:13 10° NNW 23:32:02 32° NNE 23:43:32 10° E visible
06 Mar - 01:32:34 10° NW 01:48:49 73° NE 01:57:57 10° ESE visible
06 Mar - 03:51:43 10° W 04:01:31 31° SW 04:07:38 10° SSE visible
06 Mar - 12:51:44 10° SSW 12:57:04 38° SE 13:05:53 10° ENE daylight
06 Mar - 15:01:54 10° WSW 15:09:37 54° NNW 15:23:19 10° NE daylight
06 Mar - 17:16:58 10° WNW 17:26:25 24° NNW 17:39:22 10° NNE daylight
06 Mar - 19:37:30 10° NW 19:47:44 17° N 19:58:49 10° NE visible
06 Mar - 21:55:57 10° NNW 22:10:22 24° NNE 22:22:40 10° ENE visible
07 Mar - 00:11:57 10° NW 00:29:19 49° NNE 00:40:21 10° E visible
07 Mar - 02:29:28 10° WNW 02:44:02 64° SW 02:52:09 10° SE visible
07 Mar - 04:53:19 10° WSW 04:55:57 11° SW 04:58:15 10° SSW visible
07 Mar - 11:37:53 10° SSE 11:40:20 13° SE 11:43:15 10° ESE daylight
07 Mar - 13:45:13 10° SW 13:51:27 90° SE 14:02:58 10° NE daylight
07 Mar - 15:57:45 10° W 16:06:01 32° NNW 16:18:56 10° NE daylight
07 Mar - 18:15:57 10° NW 18:25:02 18° N 18:36:02 10° NNE visible
07 Mar - 20:35:37 10° NNW 20:47:44 19° N 20:59:41 10° NE visible
07 Mar - 22:51:44 10° NW 23:08:40 36° NNE 23:21:19 10° E visible
08 Mar - 01:08:05 10° NW 01:25:33 81° NE 01:35:38 10° ESE night (unlit)
08 Mar - 03:27:59 10° W 03:38:34 30° SW 03:45:15 10° SSE visible
08 Mar - 12:29:28 10° SSW 12:34:22 41° SE 12:42:23 10° ENE daylight
08 Mar - 14:39:55 10° W 14:46:49 46° NNW 14:58:52 10° NE daylight
08 Mar - 16:55:19 10° WNW 17:03:30 21° NNW 17:14:34 10° NNE daylight
08 Mar - 19:15:05 10° NNW 19:24:41 16° N 19:35:18 10° NE visible
08 Mar - 21:31:51 10° NNW 21:47:00 26° NNE 22:00:20 10° ENE visible
08 Mar - 23:47:24 10° NW 00:05:52 55° NNE 00:17:59 10° ESE visible
09 Mar - 02:05:14 10° WNW 02:20:48 59° SW 02:29:45 10° SE visible
09 Mar - 04:30:06 10° WSW 04:33:13 12° SW 04:35:54 10° SSW visible
09 Mar - 11:15:22 10° SSE 11:17:44 13° SE 11:20:34 10° ESE daylight
09 Mar - 13:23:06 10° WSW 13:28:46 78° NW 13:38:58 10° NE daylight
09 Mar - 15:36:02 10° WNW 15:43:15 26° NNW 15:54:11 10° NNE daylight
09 Mar - 17:54:20 10° NW 18:02:07 16° N 18:11:30 10° NNE daylight
09 Mar - 20:12:15 10° NNW 20:24:29 20° NNE 20:36:58 10° NE visible
09 Mar - 22:27:21 10° NW 22:45:08 39° NNE 22:58:54 10° E visible
10 Mar - 00:43:37 10° NW 01:02:06 87° NE 01:13:10 10° SE night (unlit)
10 Mar - 03:04:09 10° W 03:15:30 29° SW 03:22:49 10° SSE visible
10 Mar - 12:07:13 10° SSW 12:11:43 45° SE 12:18:59 10° ENE daylight
10 Mar - 14:18:02 10° W 14:24:10 37° NNW 14:34:28 10° NE daylight
10 Mar - 16:33:55 10° NW 16:40:43 17° N 16:49:37 10° NNE daylight
10 Mar - 18:52:43 10° NNW 19:01:39 16° N 19:11:43 10° NE visible
10 Mar - 21:07:54 10° NNW 21:23:28 29° NNE 21:37:48 10° ENE visible
10 Mar - 23:22:56 10° NW 23:42:14 61° NNE 23:55:28 10° ESE visible
11 Mar - 01:40:58 10° WNW 01:57:25 55° SW 02:07:15 10° SE visible
11 Mar - 04:06:45 10° WSW 04:10:26 12° SW 04:13:34 10° SSW visible
11 Mar - 10:52:46 10° S 10:55:10 14° SE 10:58:01 10° ESE daylight
11 Mar - 13:01:04 10° WSW 13:06:11 65° NNW 13:15:05 10° NE daylight
11 Mar - 15:14:30 10° WNW 15:20:36 21° NNW 15:29:23 10° NNE daylight
11 Mar - 17:32:57 10° NNW 17:39:17 14° N 17:46:47 10° NNE daylight
11 Mar - 19:48:56 10° NNW 20:01:10 21° NNE 20:14:07 10° ENE visible
11 Mar - 22:03:07 10° NW 22:21:24 43° NNE 22:36:17 10° E visible
12 Mar - 00:19:11 10° NW 00:38:26 86° SW 00:50:35 10° SE visible
12 Mar - 02:40:16 10° W 02:52:20 29° SW 03:00:19 10° SSE visible
12 Mar - 11:44:58 10° SW 11:49:10 52° SE 11:55:42 10° ENE daylight
12 Mar - 13:56:16 10° W 14:01:38 29° NNW 14:10:07 10° NNE daylight
12 Mar - 16:12:54 10° NW 16:18:02 14° N 16:24:24 10° NNE daylight
12 Mar - 18:30:23 10° NNW 18:38:37 15° NNE 18:48:04 10° NE visible
12 Mar - 20:44:04 10° NNW 20:59:50 31° NNE 21:15:03 10° E visible
12 Mar - 22:58:36 10° NW 23:18:24 67° NE 23:32:47 10° ESE visible
